�������~�n���E�t�߃_�X�g���j�^�v���󋵏��
Date,Time,MP1(Bq/cm3),MP2(Bq/cm3),MP3(Bq/cm3),MP4(Bq/cm3),MP5(Bq/cm3),MP6(Bq/cm3),MP7(Bq/cm3),MP8(Bq/cm3),����,����(m/s)
2021/05/16,00:00,1.0E-06,1.0E-06,1.0E-06,1.0E-06,1.0E-06,1.0E-06,1.0E-06,1.0E-06,��,4.2
2021/05/16,00:10,1.0E-06,1.0E-06,1.0E-06,1.0E-06,1.0E-06,1.0E-06,1.0E-06,1.0E-06,��,4.0
2021/05/16,00:20,1.0E-06,1.0E-06,1.0E-06,1.0E-06,1.0E-06,1.0E-06,1.0E-06,1.0E-06,��,4.2
2021/05/16,00:30,1.0E-06,1.0E-06,1.0E-06,1.0E-06,1.0E-06,1.0E-06,1.0E-06,1.0E-06,��,4.6
2021/05/16,00:40,1.0E-06,1.0E-06,1.0E-06,1.0E-06,1.0E-06,1.0E-06,1.0E-06,1.0E-06,��,4.7
2021/05/16,00:50,1.0E-06,1.0E-06,1.0E-06,1.0E-06,1.0E-06,1.0E-06,1.0E-06,1.0E-06,��,5.1
2021/05/16,01:00,1.0E-06,1.0E-06,1.0E-06,1.0E-06,1.0E-06,1.0E-06,1.0E-06,1.0E-06,��,4.1
2021/05/16,01:10,1.0E-06,1.0E-06,1.0E-06,1.0E-06,1.0E-06,1.0E-06,1.0E-06,1.0E-06,��,5.1
2021/05/16,01:20,1.0E-06,1.0E-06,1.0E-06,1.0E-06,1.0E-06,1.0E-06,1.0E-06,1.0E-06,��,5.0
2021/05/16,01:30,1.0E-06,1.0E-06,1.0E-06,1.0E-06,1.0E-06,1.0E-06,1.0E-06,1.0E-06,��쓌,5.1
2021/05/16,01:40,1.0E-06,1.0E-06,1.0E-06,1.0E-06,1.0E-06,1.0E-06,1.0E-06,1.0E-06,��쓌,4.2
2021/05/16,01:50,1.0E-06,1.0E-06,1.0E-06,1.0E-06,1.0E-06,1.0E-06,1.0E-06,1.0E-06,��쓌,3.7
2021/05/16,02:00,1.0E-06,1.0E-06,1.0E-06,1.0E-06,1.0E-06,1.0E-06,1.0E-06,1.0E-06,��,3.7
2021/05/16,02:10,1.0E-06,1.0E-06,1.0E-06,1.0E-06,1.0E-06,1.0E-06,1.0E-06,1.0E-06,��,4.3
2021/05/16,02:20,1.0E-06,1.0E-06,1.0E-06,1.0E-06,1.0E-06,1.0E-06,1.0E-06,1.0E-06,��,3.2
2021/05/16,02:30,1.0E-06,1.0E-06,1.0E-06,1.0E-06,1.0E-06,1.0E-06,1.0E-06,1.0E-06,��,2.8
2021/05/16,02:40,1.0E-06,1.0E-06,1.0E-06,1.0E-06,1.0E-06,1.0E-06,1.0E-06,1.0E-06,��,3.0
2021/05/16,02:50,1.0E-06,1.0E-06,1.0E-06,1.0E-06,1.0E-06,1.0E-06,1.0E-06,1.0E-06,��쓌,2.8
2021/05/16,03:00,1.0E-06,1.0E-06,1.0E-06,1.0E-06,1.0E-06,1.0E-06,1.0E-06,1.0E-06,��쓌,3.2
2021/05/16,03:10,1.0E-06,1.0E-06,1.0E-06,1.0E-06,1.0E-06,1.0E-06,1.0E-06,1.0E-06,��쓌,3.2
2021/05/16,03:20,1.0E-06,1.0E-06,1.0E-06,1.0E-06,1.0E-06,1.0E-06,1.0E-06,1.0E-06,��,4.0
2021/05/16,03:30,1.0E-06,1.0E-06,1.0E-06,1.0E-06,1.0E-06,1.0E-06,1.0E-06,1.0E-06,��,3.8
2021/05/16,03:40,1.0E-06,1.0E-06,1.0E-06,1.0E-06,1.0E-06,1.0E-06,1.0E-06,1.0E-06,��,4.9
2021/05/16,03:50,1.0E-06,1.0E-06,1.0E-06,1.0E-06,1.0E-06,1.0E-06,1.0E-06,1.0E-06,��,4.5
2021/05/16,04:00,1.0E-06,1.0E-06,1.0E-06,1.0E-06,1.0E-06,1.0E-06,1.0E-06,1.0E-06,��,3.3
2021/05/16,04:10,1.0E-06,1.0E-06,1.0E-06,1.0E-06,1.0E-06,1.0E-06,1.0E-06,1.0E-06,��,3.9
2021/05/16,04:20,1.0E-06,1.0E-06,1.0E-06,1.0E-06,1.0E-06,1.0E-06,1.0E-06,1.0E-06,��,4.4
2021/05/16,04:30,1.0E-06,1.0E-06,1.0E-06,1.0E-06,1.0E-06,1.0E-06,1.0E-06,1.0E-06,��,4.5
2021/05/16,04:40,1.0E-06,1.0E-06,1.0E-06,1.0E-06,1.0E-06,1.0E-06,1.0E-06,1.0E-06,��,4.5
2021/05/16,04:50,1.0E-06,1.0E-06,1.0E-06,1.0E-06,1.0E-06,1.0E-06,1.0E-06,1.0E-06,��,3.9
2021/05/16,05:00,1.0E-06,1.0E-06,1.0E-06,1.0E-06,1.0E-06,1.0E-06,1.0E-06,1.0E-06,��,3.8
2021/05/16,05:10,1.0E-06,1.0E-06,1.0E-06,1.0E-06,1.0E-06,1.0E-06,1.0E-06,1.0E-06,��,3.7
2021/05/16,05:20,1.0E-06,1.0E-06,1.0E-06,1.0E-06,1.0E-06,1.0E-06,1.0E-06,1.0E-06,��쓌,3.3
2021/05/16,05:30,1.0E-06,1.0E-06,1.0E-06,1.0E-06,1.0E-06,1.0E-06,1.0E-06,1.0E-06,��,3.6
2021/05/16,05:40,1.0E-06,1.0E-06,1.0E-06,1.0E-06,1.0E-06,1.0E-06,1.0E-06,1.0E-06,��쓌,3.7
2021/05/16,05:50,1.0E-06,1.0E-06,1.0E-06,1.0E-06,1.0E-06,1.0E-06,1.0E-06,1.0E-06,��쓌,4.6
2021/05/16,06:00,1.0E-06,1.0E-06,1.0E-06,1.0E-06,1.0E-06,1.0E-06,1.0E-06,1.0E-06,��쓌,3.8
2021/05/16,06:10,1.0E-06,1.0E-06,1.0E-06,1.0E-06,1.0E-06,1.0E-06,1.0E-06,1.0E-06,��,4.0
2021/05/16,06:20,1.0E-06,1.0E-06,1.0E-06,1.0E-06,1.0E-06,1.0E-06,1.0E-06,1.0E-06,��,4.9
2021/05/16,06:30,1.0E-06,1.0E-06,1.0E-06,1.0E-06,1.0E-06,1.0E-06,1.0E-06,1.0E-06,��,5.9
2021/05/16,06:40,1.0E-06,1.0E-06,1.0E-06,1.0E-06,1.0E-06,1.0E-06,1.0E-06,1.0E-06,��,5.6
2021/05/16,06:50,1.0E-06,1.0E-06,1.0E-06,1.0E-06,1.0E-06,1.0E-06,1.0E-06,1.0E-06,��쓌,6.2
2021/05/16,07:00,1.0E-06,1.0E-06,1.0E-06,1.0E-06,1.0E-06,1.0E-06,1.0E-06,1.0E-06,��쓌,6.7
2021/05/16,07:10,1.0E-06,1.0E-06,1.0E-06,1.0E-06,1.0E-06,1.0E-06,1.0E-06,1.0E-06,��쓌,5.9
2021/05/16,07:20,1.0E-06,1.0E-06,1.0E-06,1.0E-06,1.0E-06,1.0E-06,1.0E-06,1.0E-06,��쓌,5.4
2021/05/16,07:30,1.0E-06,1.0E-06,1.0E-06,1.0E-06,1.0E-06,1.0E-06,1.0E-06,1.0E-06,��쓌,5.2
2021/05/16,07:40,1.0E-06,1.0E-06,1.0E-06,1.0E-06,1.0E-06,1.0E-06,1.0E-06,1.0E-06,��쓌,5.2
2021/05/16,07:50,1.0E-06,1.0E-06,1.0E-06,1.0E-06,1.0E-06,1.0E-06,1.0E-06,1.0E-06,��쓌,5.4
2021/05/16,08:00,1.0E-06,1.0E-06,1.0E-06,1.0E-06,1.0E-06,1.0E-06,1.0E-06,1.0E-06,��쓌,6.1
2021/05/16,08:10,1.0E-06,1.0E-06,1.0E-06,1.0E-06,1.0E-06,1.0E-06,1.0E-06,1.0E-06,��쓌,6.5
2021/05/16,08:20,1.0E-06,1.0E-06,1.0E-06,1.0E-06,1.0E-06,1.0E-06,1.0E-06,1.0E-06,��쓌,6.9
2021/05/16,08:30,1.0E-06,1.0E-06,1.0E-06,1.0E-06,1.0E-06,1.0E-06,1.0E-06,1.0E-06,��쓌,6.6
2021/05/16,08:40,1.0E-06,1.0E-06,1.0E-06,1.0E-06,1.0E-06,1.0E-06,1.0E-06,1.0E-06,��,6.9
2021/05/16,08:50,1.0E-06,1.0E-06,1.0E-06,1.0E-06,1.0E-06,1.0E-06,1.0E-06,1.0E-06,��,7.5
2021/05/16,09:00,1.0E-06,1.0E-06,1.0E-06,1.0E-06,1.0E-06,1.0E-06,1.0E-06,1.0E-06,��,7.3
2021/05/16,09:10,1.0E-06,1.0E-06,1.0E-06,1.0E-06,1.0E-06,1.0E-06,1.0E-06,1.0E-06,��,7.1
2021/05/16,09:20,1.0E-06,1.0E-06,1.0E-06,1.0E-06,1.0E-06,1.0E-06,1.0E-06,1.0E-06,��,7.4
2021/05/16,09:30,1.0E-06,1.0E-06,1.0E-06,1.0E-06,1.0E-06,1.0E-06,1.0E-06,1.0E-06,��,7.4
2021/05/16,09:40,1.0E-06,1.0E-06,1.0E-06,1.0E-06,1.0E-06,1.0E-06,1.0E-06,1.0E-06,��,8.6
2021/05/16,09:50,1.0E-06,1.0E-06,1.0E-06,1.0E-06,1.0E-06,1.0E-06,1.0E-06,1.0E-06,��,8.4
2021/05/16,10:00,1.0E-06,1.0E-06,1.0E-06,1.0E-06,1.0E-06,1.0E-06,1.0E-06,1.0E-06,��,8.7
2021/05/16,10:10,1.0E-06,1.0E-06,1.0E-06,1.0E-06,1.0E-06,1.0E-06,1.0E-06,1.0E-06,��,9.5
2021/05/16,10:20,1.0E-06,1.0E-06,1.0E-06,1.0E-06,1.0E-06,1.0E-06,1.0E-06,1.0E-06,��,9.6
2021/05/16,10:30,1.0E-06,1.0E-06,1.0E-06,1.0E-06,1.0E-06,1.0E-06,1.0E-06,1.0E-06,��,8.2
2021/05/16,10:40,1.0E-06,1.0E-06,1.0E-06,1.0E-06,1.0E-06,1.0E-06,1.0E-06,1.0E-06,��,8.3
2021/05/16,10:50,1.0E-06,1.0E-06,1.0E-06,1.0E-06,1.0E-06,1.0E-06,1.0E-06,1.0E-06,��,8.3
2021/05/16,11:00,1.0E-06,1.0E-06,1.0E-06,1.0E-06,1.0E-06,1.0E-06,1.0E-06,1.0E-06,��,9.4
2021/05/16,11:10,1.0E-06,1.0E-06,1.0E-06,1.0E-06,1.0E-06,1.0E-06,1.0E-06,1.0E-06,��,10.1
2021/05/16,11:20,1.0E-06,1.0E-06,1.0E-06,1.0E-06,1.0E-06,1.0E-06,1.0E-06,1.0E-06,��,9.6
2021/05/16,11:30,1.0E-06,1.0E-06,1.0E-06,1.0E-06,1.0E-06,1.0E-06,1.0E-06,1.0E-06,��,8.7
2021/05/16,11:40,1.0E-06,1.0E-06,1.0E-06,1.0E-06,1.0E-06,1.0E-06,1.0E-06,1.0E-06,��,7.7
2021/05/16,11:50,1.0E-06,1.0E-06,1.0E-06,1.0E-06,1.0E-06,1.0E-06,1.0E-06,1.0E-06,��,9.0
2021/05/16,12:00,1.0E-06,1.0E-06,1.0E-06,1.0E-06,1.0E-06,1.0E-06,1.0E-06,1.0E-06,��,8.6
2021/05/16,12:10,1.0E-06,1.0E-06,1.0E-06,1.0E-06,1.0E-06,1.0E-06,1.0E-06,1.0E-06,��,8.9
2021/05/16,12:20,1.0E-06,1.0E-06,1.0E-06,1.0E-06,1.0E-06,1.0E-06,1.0E-06,1.0E-06,��,8.8
2021/05/16,12:30,1.0E-06,1.0E-06,1.0E-06,1.0E-06,1.0E-06,1.0E-06,1.0E-06,1.0E-06,��,9.6
2021/05/16,12:40,1.0E-06,1.0E-06,1.0E-06,1.0E-06,1.0E-06,1.0E-06,1.0E-06,1.0E-06,��,9.8
2021/05/16,12:50,1.0E-06,1.0E-06,1.0E-06,1.0E-06,1.0E-06,1.0E-06,1.0E-06,1.0E-06,��,8.9
2021/05/16,13:00,1.0E-06,1.0E-06,1.0E-06,1.0E-06,1.0E-06,1.0E-06,1.0E-06,1.0E-06,��,9.4
2021/05/16,13:10,1.0E-06,1.0E-06,1.0E-06,1.0E-06,1.0E-06,1.0E-06,1.0E-06,1.0E-06,��,8.7
2021/05/16,13:20,1.0E-06,1.0E-06,1.0E-06,1.0E-06,1.0E-06,1.0E-06,1.0E-06,1.0E-06,��,8.7
2021/05/16,13:30,1.0E-06,1.0E-06,1.0E-06,1.0E-06,1.0E-06,1.0E-06,1.0E-06,1.0E-06,��,7.0
2021/05/16,13:40,1.0E-06,1.0E-06,1.0E-06,1.0E-06,1.0E-06,1.0E-06,1.0E-06,1.0E-06,��쓌,6.8
2021/05/16,13:50,1.0E-06,1.0E-06,1.0E-06,1.0E-06,1.0E-06,1.0E-06,1.0E-06,1.0E-06,��쓌,6.7
2021/05/16,14:00,1.0E-06,1.0E-06,1.0E-06,1.0E-06,1.0E-06,1.0E-06,1.0E-06,1.0E-06,��쓌,7.4
2021/05/16,14:10,1.0E-06,1.0E-06,1.0E-06,1.0E-06,1.0E-06,1.0E-06,1.0E-06,1.0E-06,��쓌,7.0
2021/05/16,14:20,1.0E-06,1.0E-06,1.0E-06,1.0E-06,1.0E-06,1.0E-06,1.0E-06,1.0E-06,��쓌,6.9
2021/05/16,14:30,1.0E-06,1.0E-06,1.0E-06,1.0E-06,1.0E-06,1.0E-06,1.0E-06,1.0E-06,��쓌,6.9
2021/05/16,14:40,1.0E-06,1.0E-06,1.0E-06,1.0E-06,1.0E-06,1.0E-06,1.0E-06,1.0E-06,��쓌,6.0
2021/05/16,14:50,1.0E-06,1.0E-06,1.0E-06,1.0E-06,1.0E-06,1.0E-06,1.0E-06,1.0E-06,��쓌,5.7
2021/05/16,15:00,1.0E-06,1.0E-06,1.0E-06,1.0E-06,1.0E-06,1.0E-06,1.0E-06,1.0E-06,��쓌,5.5
2021/05/16,15:10,1.0E-06,1.0E-06,1.0E-06,1.0E-06,1.0E-06,1.0E-06,1.0E-06,1.0E-06,��쓌,5.4
2021/05/16,15:20,1.0E-06,1.0E-06,1.0E-06,1.0E-06,1.0E-06,1.0E-06,1.0E-06,1.0E-06,��쓌,5.1
2021/05/16,15:30,1.0E-06,1.0E-06,1.0E-06,1.0E-06,1.0E-06,1.0E-06,1.0E-06,1.0E-06,��,5.3
2021/05/16,15:40,1.0E-06,1.0E-06,1.0E-06,1.0E-06,1.0E-06,1.0E-06,1.0E-06,1.0E-06,��,5.1
2021/05/16,15:50,1.0E-06,1.0E-06,1.0E-06,1.0E-06,1.0E-06,1.0E-06,1.0E-06,1.0E-06,��,5.1
2021/05/16,16:00,1.0E-06,1.0E-06,1.0E-06,1.0E-06,1.0E-06,1.0E-06,1.0E-06,1.0E-06,��,4.7
2021/05/16,16:10,1.0E-06,1.0E-06,1.0E-06,1.0E-06,1.0E-06,1.0E-06,1.0E-06,1.0E-06,��쓌,5.6
2021/05/16,16:20,1.0E-06,1.0E-06,1.0E-06,1.0E-06,1.0E-06,1.0E-06,1.0E-06,1.0E-06,��쓌,4.8
2021/05/16,16:30,1.0E-06,1.0E-06,1.0E-06,1.0E-06,1.0E-06,1.0E-06,1.0E-06,1.0E-06,��쓌,5.1
2021/05/16,16:40,1.0E-06,1.0E-06,1.0E-06,1.0E-06,1.0E-06,1.0E-06,1.0E-06,1.0E-06,��쓌,4.9
2021/05/16,16:50,1.0E-06,1.0E-06,1.0E-06,1.0E-06,1.0E-06,1.0E-06,1.0E-06,1.0E-06,��쓌,4.6
2021/05/16,17:00,1.0E-06,1.0E-06,1.0E-06,1.0E-06,1.0E-06,1.0E-06,1.0E-06,1.0E-06,��쓌,4.2
2021/05/16,17:10,1.0E-06,1.0E-06,1.0E-06,1.0E-06,1.0E-06,1.5E-06,1.0E-06,1.0E-06,��,3.9
2021/05/16,17:20,1.0E-06,1.0E-06,1.0E-06,1.0E-06,1.0E-06,1.0E-06,1.0E-06,1.0E-06,��,3.4
2021/05/16,17:30,1.0E-06,1.0E-06,1.0E-06,1.0E-06,1.0E-06,1.0E-06,1.0E-06,1.0E-06,��쓌,3.1
2021/05/16,17:40,1.0E-06,1.0E-06,1.0E-06,1.0E-06,1.0E-06,1.0E-06,1.0E-06,1.0E-06,��쓌,4.1
2021/05/16,17:50,1.0E-06,1.0E-06,1.0E-06,1.0E-06,1.0E-06,1.0E-06,1.0E-06,1.0E-06,��쓌,5.1
2021/05/16,18:00,1.0E-06,1.0E-06,1.0E-06,1.0E-06,1.0E-06,1.0E-06,1.0E-06,1.0E-06,��쓌,5.3
2021/05/16,18:10,1.0E-06,1.0E-06,1.0E-06,1.0E-06,1.0E-06,1.0E-06,1.0E-06,1.0E-06,��,5.0
2021/05/16,18:20,1.0E-06,1.0E-06,1.0E-06,1.0E-06,1.0E-06,1.0E-06,1.0E-06,1.0E-06,��,4.7
2021/05/16,18:30,1.0E-06,1.0E-06,1.0E-06,1.0E-06,1.0E-06,1.0E-06,1.0E-06,1.0E-06,��쓌,4.4
2021/05/16,18:40,1.0E-06,1.0E-06,1.0E-06,1.0E-06,1.0E-06,1.0E-06,1.0E-06,1.0E-06,��쓌,4.2
2021/05/16,18:50,1.0E-06,1.0E-06,1.0E-06,1.0E-06,1.0E-06,1.0E-06,1.0E-06,1.0E-06,��,5.7
2021/05/16,19:00,1.0E-06,1.0E-06,1.0E-06,1.0E-06,1.0E-06,1.0E-06,1.0E-06,1.0E-06,��,6.0
2021/05/16,19:10,1.0E-06,1.0E-06,1.0E-06,1.0E-06,1.0E-06,1.0E-06,1.0E-06,1.0E-06,��,5.6
2021/05/16,19:20,1.0E-06,1.0E-06,1.0E-06,1.0E-06,1.0E-06,1.0E-06,1.0E-06,1.0E-06,��쓌,6.3
2021/05/16,19:30,1.0E-06,1.0E-06,1.0E-06,1.0E-06,1.0E-06,1.0E-06,1.0E-06,1.0E-06,��쓌,5.8
2021/05/16,19:40,1.0E-06,1.0E-06,1.0E-06,1.0E-06,1.0E-06,1.0E-06,1.0E-06,1.0E-06,��쓌,5.9
2021/05/16,19:50,1.0E-06,1.0E-06,1.0E-06,1.0E-06,1.0E-06,1.0E-06,1.0E-06,1.0E-06,��쓌,5.9
2021/05/16,20:00,1.0E-06,1.0E-06,1.0E-06,1.0E-06,1.0E-06,1.0E-06,1.0E-06,1.0E-06,��쓌,4.6
2021/05/16,20:10,1.0E-06,1.0E-06,1.0E-06,1.0E-06,1.0E-06,1.0E-06,1.0E-06,1.0E-06,��쓌,2.9
2021/05/16,20:20,1.0E-06,1.0E-06,1.0E-06,1.0E-06,1.0E-06,1.0E-06,1.0E-06,1.0E-06,��쐼,3.7
2021/05/16,20:30,1.0E-06,1.0E-06,1.0E-06,1.0E-06,1.0E-06,1.0E-06,1.0E-06,1.0E-06,��쐼,4.1
2021/05/16,20:40,1.0E-06,1.0E-06,1.0E-06,1.0E-06,1.0E-06,1.0E-06,1.0E-06,1.0E-06,��,4.1
2021/05/16,20:50,1.0E-06,1.0E-06,1.0E-06,1.0E-06,1.0E-06,1.0E-06,1.0E-06,1.0E-06,��,3.8
2021/05/16,21:00,1.0E-06,1.0E-06,1.0E-06,1.0E-06,1.0E-06,1.0E-06,1.0E-06,1.0E-06,��,3.2
2021/05/16,21:10,1.0E-06,1.0E-06,1.0E-06,1.0E-06,1.0E-06,1.0E-06,1.0E-06,1.0E-06,��쓌,3.5
2021/05/16,21:20,1.0E-06,1.0E-06,1.0E-06,1.0E-06,1.0E-06,1.0E-06,1.0E-06,1.0E-06,��,4.0
2021/05/16,21:30,1.0E-06,1.0E-06,1.0E-06,1.0E-06,1.0E-06,1.0E-06,1.0E-06,1.0E-06,��,5.0
2021/05/16,21:40,1.0E-06,1.0E-06,1.0E-06,1.0E-06,1.0E-06,1.0E-06,1.0E-06,1.0E-06,��,4.7
2021/05/16,21:50,1.0E-06,1.0E-06,1.0E-06,1.0E-06,1.0E-06,1.0E-06,1.0E-06,1.0E-06,��,3.9
2021/05/16,22:00,1.0E-06,1.0E-06,1.0E-06,1.0E-06,1.0E-06,1.0E-06,1.0E-06,1.0E-06,��,3.6
2021/05/16,22:10,1.0E-06,1.0E-06,1.0E-06,1.0E-06,1.0E-06,1.0E-06,1.0E-06,1.0E-06,��,3.5
2021/05/16,22:20,1.0E-06,1.0E-06,1.0E-06,1.0E-06,1.0E-06,1.0E-06,1.0E-06,1.0E-06,��,4.0
2021/05/16,22:30,1.0E-06,1.0E-06,1.0E-06,1.0E-06,1.0E-06,1.0E-06,1.0E-06,1.0E-06,��,3.4
2021/05/16,22:40,1.0E-06,1.0E-06,1.0E-06,1.0E-06,1.0E-06,1.0E-06,1.0E-06,1.0E-06,��,3.3
2021/05/16,22:50,1.0E-06,1.0E-06,1.0E-06,1.0E-06,1.0E-06,1.0E-06,1.0E-06,1.0E-06,��,4.0
2021/05/16,23:00,1.0E-06,1.0E-06,1.0E-06,1.0E-06,1.0E-06,1.0E-06,1.0E-06,1.0E-06,��,4.2
2021/05/16,23:10,1.0E-06,1.0E-06,1.0E-06,1.0E-06,1.0E-06,1.0E-06,1.0E-06,1.0E-06,��,4.2
2021/05/16,23:20,1.0E-06,1.0E-06,1.0E-06,1.0E-06,1.0E-06,1.0E-06,1.0E-06,1.0E-06,��,4.3
2021/05/16,23:30,1.0E-06,1.0E-06,1.0E-06,1.0E-06,1.0E-06,1.0E-06,1.0E-06,1.0E-06,��,4.2
2021/05/16,23:40,1.0E-06,1.0E-06,1.0E-06,1.0E-06,1.0E-06,1.0E-06,1.0E-06,1.0E-06,��,5.2
2021/05/16,23:50,1.0E-06,1.0E-06,1.0E-06,1.0E-06,1.0E-06,1.0E-06,1.0E-06,1.0E-06,��,6.0
